Wind_Speed
63 63 62 59 62 65 66 68 63 62 61 61 58 57 55 55 56 56 57 56 55 54
63 61 65 63 64 64 62 62 59 57 62 63 61 60 56 56 56 56 56 58 56 54
58 58 55 52 58 61 61 55 55 54 58 62 61 60 58 56 57 57 57 60 59 53
49 49 52 52 53 58 51 51 50 48 49 55 61 61 59 57 59 57 56 57 54 52
50 52 51 52 55 50 49 47 39 42 47 52 54 56 56 57 56 54 53 50 47 47
48 52 53 53 52 50 50 41 39 43 47 45 45 48 52 52 51 50 49 49 47 46
41 46 50 49 48 43 40 39 38 33 36 38 39 40 43 42 43 43 42 42 44 43
38 43 43 43 41 35 38 38 33 35 34 36 34 33 34 34 36 37 36 38 40 42
28 41 41 39 38 36 37 32 31 33 31 30 29 27 26 28 31 31 31 34 36 37
10 16 20 26 35 37 35 33 32 30 27 28 25 23 24 24 25 26 25 26 29 34
18 20 18 17 15 18 24 27 29 28 26 24 23 20 21 21 21 22 23 24 24 30
14 17 19 17 18 16 19 24 23 22 19 21 21 21 19 19 21 21 20 22 26 27
15 18 23 23 21 18 15 14 15 15 16 15 16 16 17 18 19 19 21 21 21 21
10 9 12 15 16 14 14 17 19 17 15 15 16 17 17 17 19 19 20 20 21 23
Wind_Direction
218 214 215 213 214 222 223 225 221 220 220 221 221 224 225 225 224 226 228 231 231 231
217 216 215 215 218 220 220 221 224 223 220 220 221 223 225 227 225 228 230 231 230 232
218 217 216 213 214 215 218 221 223 224 222 221 221 224 225 227 227 227 227 228 228 230
216 215 211 212 214 219 220 222 222 225 226 225 223 222 223 224 225 226 226 228 230 232
216 218 214 212 221 218 232 221 224 226 227 227 225 225 225 224 227 227 227 229 229 232
223 221 219 215 217 225 235 220 218 223 225 226 228 226 225 228 230 229 233 232 232 240
222 218 219 218 215 212 211 217 216 224 225 227 227 226 227 228 231 232 234 236 238 234
223 224 220 220 219 216 219 217 220 220 220 222 223 224 224 227 230 232 233 233 234 237
217 211 213 215 208 211 215 222 218 215 215 213 215 216 222 226 228 228 230 232 235 236
191 235 200 210 196 205 208 206 204 203 202 206 212 213 218 219 222 230 232 233 236 237
162 152 159 161 169 187 189 188 191 192 195 203 207 212 214 217 222 229 233 237 237 234
162 160 150 152 150 173 186 185 184 192 196 205 207 209 211 215 220 225 232 236 233 238
154 158 149 149 156 162 177 170 170 173 190 200 208 217 219 220 225 224 224 227 233 232
183 183 170 167 158 166 177 176 170 175 188 201 207 217 221 224 226 228 222 223 229 228
Height
1353 1356 1362 1367 1370 1374 1380 1386 1397 1407 1416 1423 1432 1437 1445 1452 1459 1464 1471 1475 1480 1486
1340 1348 1349 1355 1360 1364 1373 1380 1389 1398 1406 1413 1422 1429 1436 1442 1449 1456 1463 1467 1473 1479
1336 1341 1348 1353 1354 1356 1365 1375 1383 1390 1397 1405 1414 1420 1428 1434 1441 1447 1453 1458 1464 1472
1332 1337 1341 1343 1346 1353 1362 1370 1377 1385 1391 1398 1405 1411 1419 1425 1430 1438 1444 1450 1460 1465
1323 1327 1332 1336 1342 1349 1358 1363 1372 1379 1385 1391 1397 1405 1411 1415 1422 1430 1436 1444 1452 1457
1318 1320 1325 1328 1336 1344 1348 1358 1363 1371 1376 1383 1391 1397 1404 1410 1417 1423 1430 1437 1444 1448
1315 1316 1318 1324 1329 1331 1327 1351 1357 1362 1370 1378 1385 1390 1398 1404 1413 1419 1425 1430 1435 1440
1313 1314 1315 1319 1323 1329 1339 1347 1348 1356 1365 1374 1381 1387 1393 1399 1407 1413 1418 1424 1428 1433
1310 1307 1310 1313 1315 1326 1336 1341 1344 1352 1361 1370 1377 1382 1391 1397 1403 1409 1413 1418 1422 1427
1307 1305 1305 1309 1311 1324 1328 1335 1342 1350 1358 1367 1375 1380 1388 1394 1400 1406 1409 1413 1416 1421
1312 1309 1317 1316 1319 1326 1329 1334 1340 1350 1356 1364 1372 1378 1386 1393 1397 1402 1405 1409 1411 1416
1315 1313 1312 1320 1319 1328 1334 1337 1341 1350 1354 1363 1370 1378 1382 1386 1392 1397 1401 1405 1408 1412
1319 1322 1316 1318 1324 1331 1338 1337 1342 1345 1355 1362 1367 1375 1380 1383 1388 1390 1396 1400 1404 1405
1321 1324 1325 1328 1323 1331 1341 1343 1338 1344 1353 1360 1364 1374 1377 1378 1383 1388 1391 1394 1399 1402